This is the latest recevied weather packets stored in our database for station/object W5ALL-WX. If no packets are shown the sender has not sent any weather packets the latest 10 day(s).
| Time | Temp. | Humidity | Pressure | Rain* | Wind** | Luminosity | Snow |
|---|---|---|---|---|---|---|---|
| 1778142130 | 13.33° C | 25% | 1016.4 hPa | 0 mm | - | - | - |
| 1778141830 | 14.44° C | 23% | 1016.4 hPa | 0 mm | - | - | - |
| 1778141530 | 15.56° C | 21% | 1016.3 hPa | 0 mm | - | - | - |
| 1778141230 | 15.56° C | 19% | 1016.4 hPa | 0 mm | - | - | - |
| 1778140930 | 16.11° C | 18% | 1016.6 hPa | 0 mm | - | - | - |
| 1778140630 | 16.67° C | 17% | 1016.4 hPa | 0 mm | - | - | - |
| 1778140330 | 16.67° C | 17% | 1016.4 hPa | 0 mm | - | - | - |
| 1778140030 | 17.22° C | 16% | 1016.6 hPa | 0 mm | - | - | - |
| 1778139730 | 17.78° C | 15% | 1016.4 hPa | 0 mm | - | - | - |
| 1778139430 | 17.78° C | 15% | 1016.6 hPa | 0 mm | - | - | - |
| 1778139130 | 18.33° C | 15% | 1016.6 hPa | 0 mm | - | - | - |
| 1778138830 | 17.78° C | 14% | 1016.6 hPa | 0 mm | - | - | - |
| 1778138530 | 17.78° C | 15% | 1016.6 hPa | 0 mm | - | - | - |
| 1778138230 | 17.78° C | 14% | 1016.6 hPa | 0 mm | - | - | - |
| 1778137930 | 18.33° C | 14% | 1016.7 hPa | 0 mm | - | - | - |
| 1778137630 | 18.33° C | 14% | 1016.7 hPa | 0 mm | - | - | - |
| 1778137330 | 18.33° C | 14% | 1016.7 hPa | 0 mm | - | - | - |
| 1778137030 | 18.33° C | 14% | 1016.7 hPa | 0 mm | - | - | - |
| 1778136730 | 17.78° C | 14% | 1016.7 hPa | 0 mm | - | - | - |
| 1778136430 | 17.78° C | 14% | 1016.7 hPa | 0 mm | - | - | - |
| 1778136130 | 18.33° C | 14% | 1016.7 hPa | 0 mm | - | - | - |
| 1778135830 | 18.33° C | 14% | 1016.8 hPa | 0 mm | - | - | - |
| 1778135530 | 18.33° C | 14% | 1016.7 hPa | 0 mm | - | - | - |
| 1778135230 | 18.33° C | 14% | 1016.7 hPa | 0 mm | - | - | - |
| 1778134930 | 18.33° C | 14% | 1016.8 hPa | 0 mm | - | - | - |
* Rain latest hour (hover to see other rain measurements)
** Current wind speed in m/s (hover to see current wind gust speed)